sat.trackr.live / text

‹ back to catalog

STARLINK-32637

NORAD 62032 · 2024-216A

PAYLOAD ACTIVE UNKNOWN

§ Identity

Operator
Country
US
Launch date
2024-11-21
Launch site
AFETR
Launch vehicle
Mass (kg)
RCS (m²)

Purposes: comms

External: N2YO · Heavens-Above · Gunter

§ Orbital elements

Epoch: 2026-09-21T14:38:25.439424Z

Period
94.27 min
Inclination
43.0014°
Eccentricity
0.0001606
Mean motion
15.27579803 rev/d
Perigee alt
481.9 km
Apogee alt
484.2 km
Semi-major
6,861.2 km
B*
2.9322e-4
RAAN
229.4779°
Arg perigee
267.4382°
Mean anomaly
92.6286°
Rev number
10,384

§ Raw data

STARLINK-326371 62032U 24216A   26264.61001666  .00007815  00000+0  29322-3 0  99952 62032  43.0014 229.4779 0001606 267.4382  92.6286 15.27579803103848

JSON: /api/v1/satellites/62032 · /tle

For live sub-satellite position, see the globe view (requires WebGL).

§ Visibility from observer

Set your observer location to see the next 7 days of passes ≥ 10°. The values pass through the URL so the page stays shareable.

No JS? Fill the form by hand. The geolocation button needs JavaScript.